Tracking 25612 objects as of 20-May-2022
HD Live streaming from Space Station
objects crossing your sky now

COSMOS 2251 DEB

Track COSMOS 2251 DEB now!
10-day predictions


NORAD ID: 34577
Int'l Code: 1993-036VP
Perigee: 671.2 km
Apogee: 719.0 km
Inclination: 74.0 °
Period: 98.5 minutes
Semi major axis: 7066 km
RCS: 0.034 m2 (small)
Launch date: June 16, 1993
Source: Commonwealth of Independent States (former USSR) (CIS)
Launch site: PLESETSK MISSILE AND SPACE COMPLEX (PKMTR)

Note: This is SATELLITE DEBRIS
aabbcc
Your satellite tracking list
Your tracking list is empty




NASA's NSSDC Master Catalog

Two Line Element Set (TLE):
1 34577U 93036VP  22139.52669357  .00007475  00000-0  14959-2 0  9990
2 34577  74.0381 229.0997 0033850 333.3170  26.6252 14.61610569701918
Source of the keplerian elements: AFSPC